Powrót do katalogu

THOR ABLESTAR DEB

AktywnyLEO
NORAD 4005·DEBRIS·🇺🇸 United States

Wystrzelony Jun 29, 1961 z Cape Canaveral Space Force Station

Loading…

Następne Przeloty (najbliższe 24 godziny)

TLE

ŚwieżeSource: Space-Track

Epoka: Sep 14, 2026, 04:57 UTC

1 04005U 61015JK  26257.20628757  .00000208  00000-0  26949-3 0  9994
2 04005  66.7492 169.7618 0096908 229.5701 283.1529 13.78495562900066

Śledź THOR ABLESTAR DEB w czasie rzeczywistym z AllMySat

Download on the App Store